Whiteman AFB, MO

5:14 PM CDT on October 19, 2017 (GMT -0500)
Whiteman Air Force Base

Weather History for KSZL - June, 2014

Change the Weather History Date:

Friday, June 27, 2014

  Actual Average Record
Temperature  
Mean Temperature 78 °F -  
Max Temperature 86 °F 84 °F 99 °F (2012)
Min Temperature 69 °F 65 °F 55 °F (2006)
Cooling Degree Days 12    
Growing Degree Days 28 (Base 50)    
Moisture  
Dew Point 65 °F    
Average Humidity 66    
Maximum Humidity 83    
Minimum Humidity 49    
Precipitation  
Precipitation 0.00 in - - ()
Sea Level Pressure  
Sea Level Pressure 29.88 in    
Wind  
Wind Speed 9 mph (South)    
Max Wind Speed 17 mph    
Max Gust Speed 23 mph    
Visibility 10 miles    
Events Rain    
Averages and records for this station are not official NWS values.
T = Trace of Precipitation, MM = Missing Value Source: NWS Daily Summary

Daily Weather History Graph

Daily Weather History Graph

Search for Another Location

Airport or City:

Trip Planner

Search our weather history database for the weather conditions in past years. The results will help you decide how hot, cold, wet, or windy it might be!

Date:

Astronomy

Jun. 27, 2014 Rise Set
Actual Time 5:51 AM CDT 8:43 PM CDT
Civil Twilight 5:19 AM CDT 9:15 PM CDT
Nautical Twilight 4:39 AM CDT 9:55 PM CDT
Astronomical Twilight 3:53 AM CDT 10:41 PM CDT
Moon 6:21 AM CDT (6/27) 8:50 PM CDT (6/27)
Length of Visible Light 15h 55m
Length of Day
14h 51m
New Moon, 0% of the Moon is Illuminated
Jun 27
New Moon
Jul 5
First Quarter
Jul 12
Full
Jul 18
Last Quarter
Jul 26
New

Hourly Weather History & Observations

Time (CDT) Temp. Heat Index Dew Point Humidity Pressure Visibility Wind Dir Wind Speed Gust Speed Precip Events Conditions
12:58 AM 73.2 °F - 64.4 °F 74% 29.90 in 10.0 mi SSE 6.9 mph - N/A   Clear
1:58 AM 71.1 °F - 63.7 °F 77% 29.88 in 10.0 mi South 8.1 mph - N/A   Clear
2:58 AM 70.7 °F - 63.7 °F 78% 29.88 in 10.0 mi South 5.8 mph - N/A   Clear
3:58 AM 70.3 °F - 63.3 °F 78% 29.87 in 10.0 mi SSE 5.8 mph - N/A   Clear
4:58 AM 70.0 °F - 63.5 °F 80% 29.88 in 10.0 mi South 8.1 mph - N/A   Clear
5:58 AM 70.3 °F - 63.7 °F 79% 29.89 in 10.0 mi South 6.9 mph - N/A   Mostly Cloudy
6:44 AM 69.8 °F - 64.4 °F 83% 29.90 in 10.0 mi SSE 5.8 mph - N/A Rain Light Rain Showers
6:58 AM 70.5 °F - 63.9 °F 79% 29.89 in 10.0 mi South 9.2 mph - 0.00 in Rain Light Rain Showers
7:58 AM 71.2 °F - 64.8 °F 80% 29.90 in 10.0 mi South 10.4 mph - 0.00 in   Mostly Cloudy
8:58 AM 74.3 °F - 65.7 °F 74% 29.91 in 10.0 mi South 11.5 mph - N/A   Scattered Clouds
9:58 AM 75.6 °F - 65.3 °F 70% 29.90 in 10.0 mi South 11.5 mph - N/A   Scattered Clouds
10:58 AM 80.2 °F 82.5 °F 66.4 °F 63% 29.90 in 10.0 mi South 15.0 mph - N/A   Scattered Clouds
11:58 AM 81.9 °F 84.2 °F 66.7 °F 60% 29.89 in 10.0 mi SSE 11.5 mph - N/A   Scattered Clouds
12:58 PM 84.2 °F 86.6 °F 66.4 °F 55% 29.89 in 10.0 mi South 15.0 mph - N/A   Scattered Clouds
1:58 PM 83.8 °F 85.6 °F 65.3 °F 53% 29.88 in 10.0 mi South 15.0 mph 19.6 mph N/A   Scattered Clouds
2:58 PM 85.1 °F 87.4 °F 66.0 °F 53% 29.87 in 10.0 mi South 13.8 mph - N/A   Scattered Clouds
3:58 PM 86.0 °F 87.9 °F 65.3 °F 50% 29.86 in 10.0 mi South 17.3 mph - N/A   Partly Cloudy
4:58 PM 85.8 °F 87.4 °F 64.6 °F 49% 29.84 in 10.0 mi SSW 13.8 mph - N/A   Clear
5:58 PM 85.5 °F 87.1 °F 64.8 °F 50% 29.82 in 10.0 mi South 16.1 mph 23.0 mph N/A   Clear
6:58 PM 83.5 °F 85.1 °F 64.6 °F 53% 29.82 in 10.0 mi South 15.0 mph - N/A   Clear
7:58 PM 81.3 °F 83.0 °F 64.6 °F 57% 29.84 in 10.0 mi South 10.4 mph - N/A   Clear
8:58 PM 79.3 °F - 63.3 °F 58% 29.86 in 10.0 mi South 8.1 mph - N/A   Partly Cloudy
9:58 PM 77.0 °F - 64.2 °F 65% 29.88 in 10.0 mi SSE 8.1 mph - N/A   Clear
10:58 PM 75.7 °F - 64.0 °F 67% 29.88 in 10.0 mi SSE 10.4 mph - N/A   Clear
11:58 PM 74.8 °F - 64.2 °F 69% 29.87 in 10.0 mi South 9.2 mph - N/A   Clear